Location: Berville
(49.1893°N, 2.0748°E)
Time: 12:32:17
(UTC+00:00)

Cosmos 2360 Rocket - Pass Details

Date: 08 February 2023
Orbit: 832 x 846 km, 71.0° (Epoch: 25 March)

Event Time Altitude Azimuth Distance (km) Brightness Sun altitude
Rises 18:27:35 0° 224° (SW) 3,380 6.2 -14.7°
Reaches altitude 10° 18:30:05 10° 229° (SW) 2,451 5.4 -15.1°
Maximum altitude 18:35:34 51° 305° (NW) 1,052 3.0 -16.0°
Drops below altitude 10° 18:41:06 10° 21° (NNE) 2,474 4.4 -16.9°
Enters shadow 18:42:57 - 26° (NNE) 3,159 4.9 -17.2°
